SCP
0 0 0 0 0 0 0 0 0 0 0 0 0 0 0 0 0 0 0 0 0 0 0 0 0 0 0 0 0 0 0 0 0 0 0 0 0 0 0 0 0 0 0 0
0 0 0 0 0 0 0 0 0 0 0 0 0 0 0 0 0 0 0 0 0 0 0 0 0 0 0 0 0 0 0 0 0 0 0 0 0 0 0 0 0 0 0 0
0 0 0 0 0 0 0 0 0 0 0 0 0 0 0 0 0 0 0 0 0 0 0 0 0 0 0 0 0 0 0 0 0 0 0 0 0 0 0 0 0 0 0 0
0 0 0 0 0 0 0 0 0 0 0 0 0 0 0 0 0 0 0 0 0 0 0 0 0 0 0 0 0 0 0 0 0 0 0 0 0 0 0 0 0 0 0 0
0 0 0 0 0 0 0 0 0 0 0 0 0 0 0 0 0 0 0 0 0 0 0 0 0 0 0 0 0 0 0 0 0 0 0 0 0 0 0 0 0 0 0 0
0 0 0 0 0 0 0 0 0 0 0 0 0 0 0 0 0 0 0 0 0 0 0 0 0 0 0 0 0 0 0 0 0 0 0 0 0 0 0 0 0 0 0 0
0 0 0 0 0 0 0 0 0 0 0 0 0 0 0 0 0 0 0 0 0 0 0 0 0 0 0 0 0 0 0 0 0 0 0 0 0 0 0 0 0 0 0 0
0 0 0 0 0 0 0 0 0 0 0 0 0 0 0 0 0 0 0 0 0 0 0 0 0 0 0 0 0 0 0 0 0 0 0 0 0 0 0 0 0 0 0 0
0 0 0 0 0 0 0 0 0 0 0 0 0 0 -0 -0 -0 -0 0 0 0 0 0 0 0 0 0 0 0 0 0 0 0 0 0 0 0 0 0 0 0 0 0 0
0 0 -0 0 0 0 0 0 0 0 0 -0 -0 -0 -0 0 0 0 0 0 0 0 0 0 0 0 0 0 0 0 0 0 0 0 0 0 0 0 0 0 0 0 0 0
0 0 0 0 0 0 0 0 0 0 0 0 0 0 0 0 0 0 0 0 0 0 0 0 0 0 0 0 0 0 0 0 0 0 0 0 0 0 0 0 0 0 0 0
0 0 0 0 0 0 0 0 0 0 0 0 0 0 0 0 0 0 0 0 0 0 0 0 0 0 0 0 0 0 0 0 0 0 0 0 0 0 0 0 0 0 0 0
0 0 0 0 0 0 0 0 0 0 0 0 0 0 0 0 0 0 0 0 0 0 0 0 0 0 0 0 0 0 0 0 0 0 0 0 0 0 0 0 0 0 0 0
0 0 0 0 -0 0 0 0 0 0 0 0 0 0 0 0 0 0 0 0 0 0 0 0 0 0 0 0 0 0 0 0 0 0 0 0 0 0 0 0 0 0 0 0
0 0 0 -0 0 0 0 0 0 0 0 0 0 0 0 0 0 0 0 0 0 0 0 0 0 0 0 0 0 0 0 0 0 0 0 0 0 0 0 0 0 0 0 0
0 0 -0 0 0 -0 -0 -0 -0 0 0 0 0 0 0 0 0 0 0 0 0 0 0 0 0 0 0 0 0 0 0 0 0 0 0 0 0 0 0 0 0 0 0 0
-0 0 0 -0 0 -0 -0 -0 0 0 0 0 0 0 0 0 0 0 0 0 0 0 0 0 0 0 0 0 0 0 0 0 0 0 0 0 0 0 0 0 0 0 0 0
-0 0 0 0 0 0 0 0 0 0 0 0 0 0 0 0 0 0 0 0 0 0 0 0 0 0 0 0 0 0 0 0 0 0 0 0 0 0 0 0 0 0 0 0
0 0 0 0 0 0 0 0 0 0 0 0 0 0 0 0 0 0 0 0 0 0 0 0 0 0 0 0 0 0 0 0 0 0 0 0 0 0 0 0 0 0 0 0
0 0 0 0 0 0 0 0 0 0 0 0 0 0 0 0 0 0 0 0 0 0 0 0 0 0 0 0 0 0 0 0 0 0 0 0 0 0 0 0 0 0 0 0
0 0 0 0 0 0 0 0 0 0 0 0 0 0 0 0 0 0 0 0 0 0 0 0 0 0 0 0 0 0 0 0 0 0 0 0 0 0 0 0 0 0 0 0
0 0 0 0 0 0 0 0 0 0 0 0 0 0 0 0 0 0 0 0 0 0 0 0 0 0 0 0 0 0 0 0 0 0 0 0 0 0 0 0 0 0 0 0
0 0 0 0 0 0 0 0 0 0 0 0 0 0 0 0 0 0 0 0 0 0 0 0 0 0 0 0 0 0 0 0 0 0 0 0 0 0 0 0 0 0 0 0
0 0 0 0 0 0 0 0 0 0 0 0 0 0 0 0 0 0 0 0 0 0 0 0 0 0 0 0 0 0 0 0 0 0 0 0 0 0 0 0 0 0 0 0
0 0 0 0 0 0 0 0 0 0 0 0 0 0 0 0 0 0 0 0 0 0 0 0 0 0 0 0 0 0 0 0 0 0 0 0 0 0 0 0 0 0 0 0
0 0 0 0 0 0 0 0 0 0 0 0 0 0 0 0 0 0 0 0 0 0 0 0 0 0 0 0 0 0 0 0 0 0 0 0 0 0 0 0 0 0 0 0
0 0 0 0 0 0 0 0 0 0 0 0 0 0 0 0 0 0 0 0 0 0 0 0 0 0 0 0 0 0 0 0 0 0 0 0 0 0 0 0 0 0 0 0
Wind_Speed_500mb
2 3 5 9 18 20 15 11 16 2 14 20 31 33 43 48 49 51 48 47 45 41 35 29 24 19 16 12 10 6 2 5 11 18 22 24 24 25 26 26 27 29 33 38
1 2 6 5 12 28 29 16 13 13 13 8 37 38 46 51 53 50 48 49 50 44 37 29 23 19 18 16 12 5 5 12 18 21 22 24 24 24 24 25 27 31 34 37
7 1 5 10 32 31 24 23 24 22 9 37 32 49 60 61 60 58 57 59 53 43 36 30 24 23 18 11 5 3 11 16 18 19 21 22 22 21 22 25 28 28 31 35
5 4 11 3 6 22 33 21 34 7 15 38 42 40 47 55 66 58 60 59 51 43 34 28 25 19 14 9 8 11 15 16 18 19 22 22 21 21 23 25 27 30 34 38
7 12 10 4 11 14 23 19 31 31 12 23 28 32 28 37 49 60 62 54 43 35 29 26 22 18 14 14 13 14 16 17 19 21 20 19 20 23 25 25 26 29 34 41
6 7 12 2 4 6 9 14 6 47 38 42 45 21 20 58 62 59 54 45 39 34 29 26 20 19 17 14 13 15 18 21 21 21 20 20 22 24 23 22 24 29 37 46
6 7 11 4 10 12 11 3 12 21 37 53 30 24 42 70 60 54 48 44 39 32 28 24 22 18 15 12 14 18 21 22 21 20 21 23 24 21 18 21 27 35 44 52
6 7 17 17 10 13 1 12 11 15 33 47 31 25 52 68 63 55 49 47 38 32 28 23 19 14 12 14 17 20 21 21 23 23 23 23 21 19 20 26 35 43 50 55
14 7 1 24 12 18 15 16 11 20 40 53 39 44 58 65 62 62 52 41 34 29 25 20 15 14 15 18 20 21 23 24 24 24 22 19 18 19 25 33 41 49 55 60
3 10 26 27 32 29 19 16 9 22 41 51 50 55 63 66 62 53 45 37 30 28 24 19 18 18 19 21 23 26 25 23 23 22 22 21 21 23 30 38 45 51 56 61
9 18 17 32 40 27 24 20 21 35 50 54 54 56 54 54 49 42 36 33 29 25 21 19 19 20 21 24 26 25 25 25 24 24 24 23 23 27 34 40 46 50 54 56
12 20 15 7 34 40 29 28 33 50 50 42 41 42 41 38 35 33 32 31 28 23 21 20 20 22 25 26 28 29 27 25 26 27 26 24 26 31 35 38 43 47 51 55
8 9 18 11 15 41 31 32 40 47 42 43 37 28 27 28 30 31 32 29 24 21 20 22 24 26 28 30 30 29 29 30 30 29 27 28 32 37 40 39 46 47 52 59
31 15 17 19 14 40 40 44 48 48 38 27 23 24 25 27 30 31 28 24 24 23 23 25 27 29 31 33 32 31 31 33 32 31 31 34 37 41 45 50 53 53 52 62
43 35 15 18 23 42 46 51 51 47 40 33 28 23 24 27 29 30 31 28 26 25 24 27 31 32 33 33 34 34 34 34 34 34 35 37 41 44 48 52 58 63 67 66
45 44 37 22 34 45 52 56 54 52 44 36 29 28 28 31 33 34 32 30 25 23 26 29 31 34 36 37 37 36 35 36 35 34 37 41 43 47 51 55 60 65 69 73
42 51 53 45 42 44 55 57 57 53 46 39 34 33 34 36 37 37 33 28 26 27 27 29 33 35 37 37 37 36 36 36 35 38 41 43 46 50 54 58 63 67 71 72
34 33 45 44 44 36 37 44 49 47 44 36 35 35 39 40 36 33 32 31 30 30 28 29 33 34 36 37 37 38 37 36 37 39 43 45 48 52 55 59 64 71 75 77
33 26 18 32 35 32 32 31 35 39 39 37 37 37 35 35 38 40 37 35 33 33 28 32 34 35 35 36 38 37 37 38 40 42 45 47 49 52 56 60 66 72 77 82
39 29 15 22 33 30 29 30 31 37 39 38 36 39 42 44 46 44 42 40 34 34 33 34 36 36 36 37 36 37 38 40 42 45 46 49 52 54 58 63 69 75 79 83
30 29 21 18 25 28 25 27 33 40 40 40 42 43 42 43 49 48 45 41 36 38 37 39 40 38 38 38 38 38 40 42 44 46 47 50 54 58 63 69 73 77 81 82
28 22 23 18 15 16 21 23 22 25 34 40 43 45 49 52 53 50 45 44 43 43 42 41 40 40 40 40 39 39 41 43 45 46 48 51 56 62 68 73 77 79 80 79
26 23 18 14 8 5 7 12 19 26 31 35 39 43 46 47 49 50 49 45 45 44 44 43 43 41 40 39 39 40 41 44 45 48 50 54 60 66 71 75 76 75 75 74
28 22 17 10 4 2 6 13 19 24 29 34 37 38 42 46 51 53 52 50 47 46 44 45 43 41 38 39 39 39 41 44 46 49 53 59 64 69 71 72 71 69 69 68
18 12 6 1 2 6 12 19 24 26 28 29 31 34 40 46 51 53 51 48 47 47 45 43 40 37 35 37 37 40 43 45 48 52 57 63 69 71 70 67 64 62 61 59
7 7 10 14 16 19 22 25 28 31 32 33 34 34 38 42 46 48 48 47 45 44 43 41 38 35 34 35 37 41 43 46 51 56 63 69 70 68 64 59 55 52 51 51
10 15 21 25 29 33 33 31 31 32 35 34 33 32 34 36 37 39 40 41 41 40 38 35 33 32 33 35 37 41 45 50 56 63 68 69 67 63 57 51 47 44 44 44
Wind_Direction_500mb
57 102 146 166 168 186 207 225 217 252 221 194 185 177 172 166 164 164 168 166 167 169 172 176 177 177 180 177 177 175 236 307 321 327 325 327 331 338 342 346 351 357 360 359
167 253 206 213 215 205 209 220 250 255 243 211 168 167 168 170 170 169 166 168 171 175 179 178 181 190 194 193 187 174 294 319 324 327 333 338 341 345 348 352 356 360 3 3
188 337 129 286 221 206 206 209 204 204 198 157 167 177 178 173 177 176 172 176 177 179 181 184 188 196 189 183 182 295 300 310 320 333 335 336 340 346 352 357 360 1 9 9
134 168 222 105 330 216 220 237 222 195 154 183 191 190 181 181 174 175 177 179 182 183 184 187 190 188 190 200 233 267 293 312 325 330 331 335 341 347 355 1 5 9 10 3
181 216 314 203 183 181 192 255 220 224 182 165 154 147 173 184 185 183 182 183 183 185 189 192 191 191 199 229 262 289 303 314 324 329 331 336 343 352 358 2 5 5 359 354
169 201 217 357 154 163 163 273 315 208 178 159 154 184 190 189 191 185 185 184 188 192 195 195 193 204 225 250 279 301 311 321 326 328 327 333 342 348 351 355 358 354 349 347
178 238 282 214 164 167 174 298 332 214 187 166 181 202 177 182 184 188 184 190 193 194 197 200 207 220 239 272 296 303 311 314 319 327 330 333 336 333 339 347 345 345 347 345
133 206 248 164 145 197 18 316 304 198 185 177 187 175 170 177 177 180 190 194 195 200 203 208 218 237 268 285 292 295 302 313 315 316 315 314 319 327 336 341 341 339 340 340
208 216 150 198 223 225 274 289 282 201 183 185 170 164 171 177 184 190 192 194 199 202 207 212 229 252 266 275 283 298 306 305 307 306 307 312 315 324 332 333 336 338 338 337
195 211 231 233 231 239 261 256 215 193 182 181 176 173 174 179 182 187 193 199 202 205 208 220 238 257 274 287 298 301 300 297 297 300 304 308 313 319 327 334 336 335 334 334
266 274 274 253 233 229 236 210 183 176 176 173 171 169 174 177 184 192 200 202 204 207 217 235 256 273 290 293 292 292 292 293 294 297 300 301 305 319 329 331 330 332 333 333
211 219 202 215 222 211 210 189 179 173 169 168 169 167 174 184 194 201 204 205 205 215 233 252 274 285 286 290 291 287 285 289 293 293 291 294 307 316 317 319 327 331 331 331
209 207 197 210 205 195 192 181 173 174 174 166 169 180 184 196 202 205 204 205 214 231 251 270 280 285 286 285 283 284 287 289 290 293 300 303 301 301 305 313 323 327 329 328
218 205 212 205 202 191 189 179 175 176 176 177 184 190 206 207 208 206 206 212 228 246 262 273 279 283 286 285 284 285 286 290 294 295 289 288 297 307 313 318 320 321 323 325
215 212 218 214 200 194 190 190 189 189 191 195 202 213 215 217 209 206 212 224 237 250 264 279 285 285 284 282 280 283 287 289 285 281 284 294 302 308 314 317 319 322 325 327
205 207 209 207 198 199 198 198 203 203 206 212 219 221 217 207 205 212 221 231 247 265 274 283 289 287 282 279 279 282 283 282 283 285 290 296 303 309 312 315 320 323 326 326
194 203 205 206 200 202 209 211 212 214 216 221 225 220 217 215 217 221 227 239 252 264 275 280 280 281 278 277 278 281 283 283 284 286 290 297 303 308 313 317 320 322 323 324
220 234 227 223 216 210 206 210 216 219 222 224 221 226 223 226 230 229 235 245 253 262 270 274 279 281 281 281 282 281 280 279 281 286 292 297 303 308 313 316 319 320 322 323
205 210 213 215 218 218 219 217 217 214 212 217 230 238 240 237 231 234 243 249 255 263 268 273 275 279 277 276 276 276 275 277 282 288 293 299 304 309 313 316 319 320 322 322
203 204 212 206 203 211 213 214 217 214 218 229 237 238 240 237 235 240 246 252 258 264 272 275 279 279 276 276 274 273 273 278 285 291 297 302 307 310 314 318 319 320 321 321
179 188 185 171 180 195 202 210 219 223 233 242 248 251 254 246 241 244 250 259 266 268 274 278 278 277 277 275 272 271 275 282 289 294 299 303 307 313 317 318 319 320 320 321
177 174 176 172 179 199 209 220 235 241 247 252 253 252 249 246 245 251 258 264 268 272 275 277 277 274 273 272 269 271 278 285 290 295 300 306 311 315 317 319 320 320 321 321
169 172 173 181 184 180 215 249 263 268 270 269 267 265 262 259 255 257 264 268 269 274 276 276 274 272 271 267 267 273 281 289 294 300 305 309 313 315 317 318 319 320 320 323
121 120 117 117 110 342 326 290 285 284 281 278 277 274 267 263 262 265 267 269 271 274 275 272 270 267 264 264 268 277 285 290 297 302 307 310 313 315 316 318 319 321 323 325
110 121 133 159 273 280 293 302 303 303 299 295 289 279 271 266 263 264 266 269 270 273 272 272 268 263 262 266 275 283 289 295 301 305 309 313 314 316 317 317 319 322 324 327
154 198 233 253 269 281 287 296 304 303 300 298 291 283 275 270 268 268 268 269 272 273 274 273 269 265 264 270 278 287 294 300 304 308 311 312 314 315 315 317 319 322 326 329
243 258 269 280 289 292 295 300 302 302 299 295 289 283 278 275 271 268 268 269 271 272 271 269 266 263 267 275 285 291 296 302 307 310 311 312 312 312 312 313 316 321 326 328
Wind_Speed_850mb
2 3 5 9 18 20 15 11 16 2 14 20 31 33 43 48 49 51 48 47 45 41 35 29 24 19 16 12 10 6 2 5 11 18 22 24 24 25 26 26 27 29 33 38
1 2 6 5 12 28 29 16 13 13 13 8 37 38 46 51 53 50 48 49 50 44 37 29 23 19 18 16 12 5 5 12 18 21 22 24 24 24 24 25 27 31 34 37
7 1 5 10 32 31 24 23 24 22 9 37 32 49 60 61 60 58 57 59 53 43 36 30 24 23 18 11 5 3 11 16 18 19 21 22 22 21 22 25 28 28 31 35
5 4 11 3 6 22 33 21 34 7 15 38 42 40 47 55 66 58 60 59 51 43 34 28 25 19 14 9 8 11 15 16 18 19 22 22 21 21 23 25 27 30 34 38
7 12 10 4 11 14 23 19 31 31 12 23 28 32 28 37 49 60 62 54 43 35 29 26 22 18 14 14 13 14 16 17 19 21 20 19 20 23 25 25 26 29 34 41
6 7 12 2 4 6 9 14 6 47 38 42 45 21 20 58 62 59 54 45 39 34 29 26 20 19 17 14 13 15 18 21 21 21 20 20 22 24 23 22 24 29 37 46
6 7 11 4 10 12 11 3 12 21 37 53 30 24 42 70 60 54 48 44 39 32 28 24 22 18 15 12 14 18 21 22 21 20 21 23 24 21 18 21 27 35 44 52
6 7 17 17 10 13 1 12 11 15 33 47 31 25 52 68 63 55 49 47 38 32 28 23 19 14 12 14 17 20 21 21 23 23 23 23 21 19 20 26 35 43 50 55
14 7 1 24 12 18 15 16 11 20 40 53 39 44 58 65 62 62 52 41 34 29 25 20 15 14 15 18 20 21 23 24 24 24 22 19 18 19 25 33 41 49 55 60
3 10 26 27 32 29 19 16 9 22 41 51 50 55 63 66 62 53 45 37 30 28 24 19 18 18 19 21 23 26 25 23 23 22 22 21 21 23 30 38 45 51 56 61
9 18 17 32 40 27 24 20 21 35 50 54 54 56 54 54 49 42 36 33 29 25 21 19 19 20 21 24 26 25 25 25 24 24 24 23 23 27 34 40 46 50 54 56
12 20 15 7 34 40 29 28 33 50 50 42 41 42 41 38 35 33 32 31 28 23 21 20 20 22 25 26 28 29 27 25 26 27 26 24 26 31 35 38 43 47 51 55
8 9 18 11 15 41 31 32 40 47 42 43 37 28 27 28 30 31 32 29 24 21 20 22 24 26 28 30 30 29 29 30 30 29 27 28 32 37 40 39 46 47 52 59
31 15 17 19 14 40 40 44 48 48 38 27 23 24 25 27 30 31 28 24 24 23 23 25 27 29 31 33 32 31 31 33 32 31 31 34 37 41 45 50 53 53 52 62
43 35 15 18 23 42 46 51 51 47 40 33 28 23 24 27 29 30 31 28 26 25 24 27 31 32 33 33 34 34 34 34 34 34 35 37 41 44 48 52 58 63 67 66
45 44 37 22 34 45 52 56 54 52 44 36 29 28 28 31 33 34 32 30 25 23 26 29 31 34 36 37 37 36 35 36 35 34 37 41 43 47 51 55 60 65 69 73
42 51 53 45 42 44 55 57 57 53 46 39 34 33 34 36 37 37 33 28 26 27 27 29 33 35 37 37 37 36 36 36 35 38 41 43 46 50 54 58 63 67 71 72
34 33 45 44 44 36 37 44 49 47 44 36 35 35 39 40 36 33 32 31 30 30 28 29 33 34 36 37 37 38 37 36 37 39 43 45 48 52 55 59 64 71 75 77
33 26 18 32 35 32 32 31 35 39 39 37 37 37 35 35 38 40 37 35 33 33 28 32 34 35 35 36 38 37 37 38 40 42 45 47 49 52 56 60 66 72 77 82
39 29 15 22 33 30 29 30 31 37 39 38 36 39 42 44 46 44 42 40 34 34 33 34 36 36 36 37 36 37 38 40 42 45 46 49 52 54 58 63 69 75 79 83
30 29 21 18 25 28 25 27 33 40 40 40 42 43 42 43 49 48 45 41 36 38 37 39 40 38 38 38 38 38 40 42 44 46 47 50 54 58 63 69 73 77 81 82
28 22 23 18 15 16 21 23 22 25 34 40 43 45 49 52 53 50 45 44 43 43 42 41 40 40 40 40 39 39 41 43 45 46 48 51 56 62 68 73 77 79 80 79
26 23 18 14 8 5 7 12 19 26 31 35 39 43 46 47 49 50 49 45 45 44 44 43 43 41 40 39 39 40 41 44 45 48 50 54 60 66 71 75 76 75 75 74
28 22 17 10 4 2 6 13 19 24 29 34 37 38 42 46 51 53 52 50 47 46 44 45 43 41 38 39 39 39 41 44 46 49 53 59 64 69 71 72 71 69 69 68
18 12 6 1 2 6 12 19 24 26 28 29 31 34 40 46 51 53 51 48 47 47 45 43 40 37 35 37 37 40 43 45 48 52 57 63 69 71 70 67 64 62 61 59
7 7 10 14 16 19 22 25 28 31 32 33 34 34 38 42 46 48 48 47 45 44 43 41 38 35 34 35 37 41 43 46 51 56 63 69 70 68 64 59 55 52 51 51
10 15 21 25 29 33 33 31 31 32 35 34 33 32 34 36 37 39 40 41 41 40 38 35 33 32 33 35 37 41 45 50 56 63 68 69 67 63 57 51 47 44 44 44
Wind_Direction_850mb
57 102 146 166 168 186 207 225 217 252 221 194 185 177 172 166 164 164 168 166 167 169 172 176 177 177 180 177 177 175 236 307 321 327 325 327 331 338 342 346 351 357 360 359
167 253 206 213 215 205 209 220 250 255 243 211 168 167 168 170 170 169 166 168 171 175 179 178 181 190 194 193 187 174 294 319 324 327 333 338 341 345 348 352 356 360 3 3
188 337 129 286 221 206 206 209 204 204 198 157 167 177 178 173 177 176 172 176 177 179 181 184 188 196 189 183 182 295 300 310 320 333 335 336 340 346 352 357 360 1 9 9
134 168 222 105 330 216 220 237 222 195 154 183 191 190 181 181 174 175 177 179 182 183 184 187 190 188 190 200 233 267 293 312 325 330 331 335 341 347 355 1 5 9 10 3
181 216 314 203 183 181 192 255 220 224 182 165 154 147 173 184 185 183 182 183 183 185 189 192 191 191 199 229 262 289 303 314 324 329 331 336 343 352 358 2 5 5 359 354
169 201 217 357 154 163 163 273 315 208 178 159 154 184 190 189 191 185 185 184 188 192 195 195 193 204 225 250 279 301 311 321 326 328 327 333 342 348 351 355 358 354 349 347
178 238 282 214 164 167 174 298 332 214 187 166 181 202 177 182 184 188 184 190 193 194 197 200 207 220 239 272 296 303 311 314 319 327 330 333 336 333 339 347 345 345 347 345
133 206 248 164 145 197 18 316 304 198 185 177 187 175 170 177 177 180 190 194 195 200 203 208 218 237 268 285 292 295 302 313 315 316 315 314 319 327 336 341 341 339 340 340
208 216 150 198 223 225 274 289 282 201 183 185 170 164 171 177 184 190 192 194 199 202 207 212 229 252 266 275 283 298 306 305 307 306 307 312 315 324 332 333 336 338 338 337
195 211 231 233 231 239 261 256 215 193 182 181 176 173 174 179 182 187 193 199 202 205 208 220 238 257 274 287 298 301 300 297 297 300 304 308 313 319 327 334 336 335 334 334
266 274 274 253 233 229 236 210 183 176 176 173 171 169 174 177 184 192 200 202 204 207 217 235 256 273 290 293 292 292 292 293 294 297 300 301 305 319 329 331 330 332 333 333
211 219 202 215 222 211 210 189 179 173 169 168 169 167 174 184 194 201 204 205 205 215 233 252 274 285 286 290 291 287 285 289 293 293 291 294 307 316 317 319 327 331 331 331
209 207 197 210 205 195 192 181 173 174 174 166 169 180 184 196 202 205 204 205 214 231 251 270 280 285 286 285 283 284 287 289 290 293 300 303 301 301 305 313 323 327 329 328
218 205 212 205 202 191 189 179 175 176 176 177 184 190 206 207 208 206 206 212 228 246 262 273 279 283 286 285 284 285 286 290 294 295 289 288 297 307 313 318 320 321 323 325
215 212 218 214 200 194 190 190 189 189 191 195 202 213 215 217 209 206 212 224 237 250 264 279 285 285 284 282 280 283 287 289 285 281 284 294 302 308 314 317 319 322 325 327
205 207 209 207 198 199 198 198 203 203 206 212 219 221 217 207 205 212 221 231 247 265 274 283 289 287 282 279 279 282 283 282 283 285 290 296 303 309 312 315 320 323 326 326
194 203 205 206 200 202 209 211 212 214 216 221 225 220 217 215 217 221 227 239 252 264 275 280 280 281 278 277 278 281 283 283 284 286 290 297 303 308 313 317 320 322 323 324
220 234 227 223 216 210 206 210 216 219 222 224 221 226 223 226 230 229 235 245 253 262 270 274 279 281 281 281 282 281 280 279 281 286 292 297 303 308 313 316 319 320 322 323
205 210 213 215 218 218 219 217 217 214 212 217 230 238 240 237 231 234 243 249 255 263 268 273 275 279 277 276 276 276 275 277 282 288 293 299 304 309 313 316 319 320 322 322
203 204 212 206 203 211 213 214 217 214 218 229 237 238 240 237 235 240 246 252 258 264 272 275 279 279 276 276 274 273 273 278 285 291 297 302 307 310 314 318 319 320 321 321
179 188 185 171 180 195 202 210 219 223 233 242 248 251 254 246 241 244 250 259 266 268 274 278 278 277 277 275 272 271 275 282 289 294 299 303 307 313 317 318 319 320 320 321
177 174 176 172 179 199 209 220 235 241 247 252 253 252 249 246 245 251 258 264 268 272 275 277 277 274 273 272 269 271 278 285 290 295 300 306 311 315 317 319 320 320 321 321
169 172 173 181 184 180 215 249 263 268 270 269 267 265 262 259 255 257 264 268 269 274 276 276 274 272 271 267 267 273 281 289 294 300 305 309 313 315 317 318 319 320 320 323
121 120 117 117 110 342 326 290 285 284 281 278 277 274 267 263 262 265 267 269 271 274 275 272 270 267 264 264 268 277 285 290 297 302 307 310 313 315 316 318 319 321 323 325
110 121 133 159 273 280 293 302 303 303 299 295 289 279 271 266 263 264 266 269 270 273 272 272 268 263 262 266 275 283 289 295 301 305 309 313 314 316 317 317 319 322 324 327
154 198 233 253 269 281 287 296 304 303 300 298 291 283 275 270 268 268 268 269 272 273 274 273 269 265 264 270 278 287 294 300 304 308 311 312 314 315 315 317 319 322 326 329
243 258 269 280 289 292 295 300 302 302 299 295 289 283 278 275 271 268 268 269 271 272 271 269 266 263 267 275 285 291 296 302 307 310 311 312 312 312 312 313 316 321 326 328